Regional Weather Roundup
Issued by NWS Wakefield, VA

Home | Current Version | Previous Version | Graphics & Text | Print | Product List | Glossary On
Versions: 1 2 3 4 5 6 7 8 9 10 11 12 13 14 15 16 17 18 19 20 21 22 23 24 25 26 27 28 29 30 31 32 33 34 35 36 37 38 39 40 41 42 43 44 45 46 47 48 49 50
000
ASUS41 KAKQ 281615
RWRAKQ

REGIONAL WEATHER ROUNDUP
NATIONAL WEATHER SERVICE WAKEFIELD VA
1200 PM EDT THU MAY 28 2015

Note: "fair" indicates few or no clouds below 12,000 feet with no
significant weather and/or obstructions to visibility. * = Denotes
station may not report precipitation (e.g., rain,snow,etc.),
thunder or fog.

VAZ042-051-052>054-056-281700-
NORTHERN VIRGINIA

CITY           SKY/WX    TMP DP  RH WIND       PRES   REMARKS
WASH NATIONAL  PTSUNNY   85  68  56 S5        30.19S
DULLES         PTSUNNY   83  65  54 W3        30.20R
FORT BELVOIR   MOSUNNY   86  65  49 W5        30.19S
QUANTICO       NOT AVBL
FREDERICKSBRG* PTSUNNY   85  68  56 SE5       30.19S
STAFFORD*      PTSUNNY   83  65  54 CALM      30.24S
WARRENTON      PTSUNNY   87  68  52 NW3       30.20S
CULPEPER*      SUNNY     84  63  49 CALM      30.21S
MANASSAS*      SUNNY     84  63  48 NW8       30.20R
LEESBURG*      SUNNY     86  66  51 N5        30.21S
WINCHESTER     SUNNY     84  52  32 N6        30.22R
FRONT ROYAL*   FAIR      81  64  57 CALM      30.21R
LURAY*         FAIR      86  63  45 CALM      30.22S
$$

VAZ048-049-060>072-079>083-281700-
CENTRAL AND SOUTH CENTRAL VIRGINIA

CITY           SKY/WX    TMP DP  RH WIND       PRES   REMARKS
RICHMOND       CLOUDY    83  69  62 S9        30.21S
CHESTERFIELD*  NOT AVBL
PETERSBURG*    PTSUNNY   83  75  78 SW6       30.21F
HANOVER        MOSUNNY   81  68  64 W6        30.22S
TAPPAHANNOCK*  MOSUNNY   83  65  53 CALM      30.21S
QUINTON*       CLOUDY    80  71  74 S3        30.21S
CHARLOTTSVILLE MOSUNNY   85  62  46 SE6       30.21S
GORDONSVILLE*  FAIR      83  67  59 E3        30.21R
ORANGE*        MOSUNNY   82  66  57 CALM      30.23S
LOUISA*        PTSUNNY   84  66  54 SE3       30.21R
BUMPASS*       PTSUNNY   84  67  57 E6        30.21R
FARMVILLE*     MOSUNNY   83  68  60 SW3       30.20S
CREWE*         FAIR      84  68  58 CALM      30.21S
FORT PICKETT*  FAIR      82  70  68 S6        30.22S
CHASE CITY*    FAIR      83  72  68 S3        30.22S
CLARKSVILLE*   FAIR      81  70  69 E3        30.22S
SOUTH HILL*    PTSUNNY   80  70  72 S3        30.28S
LAWRENCEVILLE* FAIR      79  72  78 S7        30.23S
EMPORIA*       CLOUDY    77  70  78 S5        30.24F
$$

VAZ088>098-281700-
SOUTHEAST VIRGINIA

CITY           SKY/WX    TMP DP  RH WIND       PRES   REMARKS
NORFOLK        PTSUNNY   81  66  60 SW9       30.22S
VIRGINIA BEACH PTSUNNY   83  68  60 S9        30.21S
NORFOLK NAVAL  PTSUNNY   85  68  56 SW7       30.23S
WEST POINT*    PTSUNNY   83  69  62 S7        30.23S
SALUDA*        PTSUNNY   78  71  78 SW5       30.21S
NEWPORT NEWS   CLOUDY    85  70  60 W13       30.22S
LANGLEY AFB    MOSUNNY   80  70  71 SW9       30.21S
FORT EUSTIS    CLOUDY    79  70  73 W6        30.21S
WILLIAMSBURG*  CLOUDY    81  72  74 SW7       30.23F
HR EXEC AP*    PTSUNNY   81  70  69 SW8       30.24S
FRANKLIN*      CLOUDY    79  69  70 S8        30.23S
WAKEFIELD      CLOUDY    78  70  76 SW7       30.23S
$$

VAZ020-022-025-037-045-281700-
WEST CENTRAL AND SOUTHWEST VIRGINIA

CITY           SKY/WX    TMP DP  RH WIND       PRES   REMARKS
STAUNTON*      SUNNY     83  62  48 NE5       30.26S
WAYNESBORO*    FAIR      80  61  52 E3        30.25S
HOT SPRINGS VA CLOUDY    70  55  58 NW5       30.36R
LYNCHBURG      MOSUNNY   82  63  52 VRB6      30.23F
DANVILLE       MOSUNNY   85  66  53 VRB3      30.22S
SOUTH BOSTON*  FAIR      82  69  63 SE3       30.21S
MARTINSVILLE   SUNNY     85  64  47 SE6       30.25S
ROANOKE        MOSUNNY   83  61  47 CALM      30.25F
BLACKSBURG     PTSUNNY   80  59  48 NE6       30.32S
DUBLIN*        PTSUNNY   78  62  58 N5        30.31S
MARION*        PTSUNNY   78  61  55 CALM      30.33S
HILLSVILLE*    MOSUNNY   74  62  64 NW5       30.32R
RICHLANDS*     CLOUDY    74  63  69 N5        30.32R
WISE*          CLOUDY    77  57  50 NE6       30.32S
ABINGDON*      MOSUNNY   78  64  60 CALM      30.30R
$$

MDZ021>025-VAZ099-100-281700-
SOUTHERN MARYLAND AND THE DELMARVA PENINSULA

CITY           SKY/WX    TMP DP  RH WIND       PRES   REMARKS
PATUXENT RIVER CLOUDY    82  69  64 W7        30.19F
BAY BRIDGE APT   N/A    N/A N/A N/A W3        30.19S
LEONARDTOWN    PTSUNNY   79  68  69 SW7       30.21S
DOVER          MOSUNNY   84  73  69 S7        30.16F
GEORGETOWN     PTSUNNY   80  69  69 SW9       30.20S
EASTON         MOSUNNY   82  73  74 SW6       30.23S
CAMBRIDGE      PTSUNNY   79  68  69 SE3       30.19F
SALISBURY      CLOUDY    78  69  73 SW7       30.20F
OCEAN CITY     PTSUNNY   70  65  84 S8        30.21S
WALLOPS ISLAND CLOUDY    73  68  84 S13       30.23S
ACCOMACK*      CLOUDY    77  70  78 SW6       30.22S
$$

NCZ012>017-030>032-281700-
NORTH CENTRAL AND EASTERN NORTH CAROLINA

CITY           SKY/WX    TMP DP  RH WIND       PRES   REMARKS
ROANOKE RAPIDS CLOUDY    77  70  78 W5        30.24S
RALEIGH        PTSUNNY   80  71  74 SW5       30.25S
ELIZABETH CITY MOSUNNY   81  69  67 SW8       30.24S
AHOSKIE*       PTSUNNY   77  68  72 CALM      30.24S
EDENTON*       MOSUNNY   79  68  69 SW6       30.24S
CURRITUCK*     MOSUNNY   81  64  57 S7        30.24S
KILL DEVIL HLS MOSUNNY   79  64  60 S6        30.24F
MANTEO         MOSUNNY   77  64  64 S14       30.26S
CAPE HATTERAS  CLOUDY    78  60  53 S6        30.28S
TARBORO*       CLOUDY    81  69  66 SW7       30.24F
GOLDSBORO      PTSUNNY   81  67  62 CALM      30.22F
WASHINGTON     MOSUNNY   80  67  64 CALM      30.24F
GREENVILLE     PTSUNNY   81  68  65 S3        30.24F
NEW BERN       CLOUDY    82  65  56 SE8       30.26F
WILMINGTON     SUNNY     81  63  54 E5        30.25S
$$

VAZ048-281700-
ELSEWHERE

CITY           SKY/WX    TMP DP  RH WIND       PRES   REMARKS
HARRISBURG PA  MOSUNNY   81  65  58 W9        30.18R
BALTIMORE      PTSUNNY   84  63  49 CALM      30.18S
ANNAPOLIS      MOSUNNY   75  70  84 SE12      30.18F
ANDREWS AFB    NOT AVBL
PHILADELPHIA   PTSUNNY   81  68  64 SW9       30.17F
HENDERSON NC   MOSUNNY   78  67  68 S9        30.24S
GREENSBORO     PTSUNNY   80  63  55 CALM      30.22S
ROCKY MOUNT    PTSUNNY   80  71  74 SW6       30.24S
$$

VAZ100-281700-
MARINE

STATION/POSITION TIME  TEMP    WIND        PRES    WAVE   SWELL
                       AIR SEA DIR/SP/G            HT/PER HT/PER
                 (UTC) (F)     (DEG/KT/KT) (MB)    (FT/S) (FT/S)
BRANDYWINE LGT   1500   71 68  190/  6/  7 1022.7R
CAPE MAY NJ      1500   71 70  170/  5/  8 1022.5R
LEWES DE         1500   79 63  240/  4/  7 1022.3R
15NM E FENWICK I 1550   65 62              1022.9F   3/ 5
OCEAN-CITY-INLET 1500   64 67  210/ 10/ 13 1022.9R
WACHAPREAGUE VA  1500   75 75  200/ 10/ 13 1023.1F
THOMAS POINT MD  1600   72 70  160/  9/  9 1022.8S
GOOSES REEF MD   1600   73 71  170/ 10/ 10 1023.4S   1/ 2
COVE POINT MD    1500   71     170/  9/ 10 1023.2R
SOLOMONS ISLAND  1500      71                N/A
BISHOPS HEAD MD  1500   74 73  190/  9/ 10 1022.6S
PINEY POINT MD   1500          110/  3/  3   N/A
CAMBRIDGE MD     1500   77 72  190/  3/  6 1022.4R
LEWISETTA VA     1500   78 72              1022.4S
RAPPAHANNOCK LGT 1500          180/ 13/ 14 1023.6S
STINGRAY PT      1600   76     230/  6/  8 1023.4R   1/ 3
YORK RVR RNG VA  1500   76     260/ 10/ 11 1022.5S
YORKTOWN VA      1500   76 72  220/  8/ 13 1022.7S
JAMESTOWN VA     1600   75 77  250/  6/  8 1022.4F
DOMINION TERM VA 1500   75     230/ 10/ 12 1023.4S
KIPTOPEKE VA     1500      76  200/  5/  6   N/A
CHES BAY BRIDGE  1500   76 71  190/ 10/ 12 1022.7F
CAPE HENRY VA    1500   79     190/ 10/ 13 1022.0F
CHESAPEAKE LGHT  1500   66     180/ 20/ 20 1023.8F
WILLOUBY STN VA  1500   75     240/  8/  9 1024.1S
CAPE HENRY BUOY  1528      61                N/A     3/ 7
1ST LANDING BUOY 1600      72              1023.0S
CAPE CHARLES BUO 1526      69                N/A     3/ 8   2/ 8
OFFSHORE WE BUOY 1511      65                N/A     3/ 8   2/ 8
64NM E OF VA BCH 1550   67 64  170/  8/ 10 1024.4F   3/ 8   3/ 8
DUCK PIER NC     1500   74 54  200/ 10/ 12 1023.6F
44100 DUCK FRF   1524      66                N/A     2/ 8
44056 DUCK FRF   1511      60                N/A     2/ 8
OREGON INLET NC  1500   74 76  180/  8/ 11 1025.1R
HATTERAS NC      1500   76 74  160/  5/  6 1024.9R
DIAMOND SHLS NC  1550   75 78  160/  6/  8 1025.3S   3/ 7   3/ 7
CAPE LOOKOUT NC  1600   74     130/  7/  7 1024.7F
$$



USA.gov is the U.S. government's official web portal to all federal, state and local government web resources and services.